Regional Weather Roundup
Issued by NWS

Home | Current Version | Previous Version | Graphics & Text | Print | Product List | Glossary On
Versions: 1 2 3 4 5 6 7 8 9 10 11 12 13 14 15 16 17 18 19 20 21 22 23 24 25 26 27
000
ASUS43 KDMX 170307
RWRIA

WEATHER ROUNDUP FOR IOWA
NATIONAL WEATHER SERVICE DES MOINES IA
1000 PM CDT WED APR 16 2014

NOTE: "FAIR" INDICATES FEW OR NO CLOUDS BELOW 12,000 FEET WITH NO
SIGNIFICANT WEATHER AND/OR OBSTRUCTIONS TO VISIBILITY.

* - THESE STATIONS ARE NOT NWS STATIONS...THUS NOT UNDER NWS
QUALITY CONTROL.  THEY ALSO DO NOT REPORT WEATHER SUCH
AS PRECIPITATION OR FOG.

IAZ001>003-012>014-020>022-031>034-043>046-170400-
   NORTHWEST IOWA

CITY           SKY/WX    TMP DP  RH WIND       PRES   REMARKS
CARROLL *      CLOUDY    41  36  81 NW25      29.93R
CHEROKEE *     CLOUDY    32  30  92 NW22G29   29.99R WCI  19
DENISON *      CLOUDY    34  30  86 NW25G32   29.98R WCI  21
LE MARS *      CLOUDY    32  28  86 N22G30    30.05R WCI  19
ORANGE CITY *  CLOUDY    30  27  86 N15G26    30.03R WCI  19
SHELDON *      MIX PCPN  30  28  93 N28       30.00R WCI  16
SIOUX CITY     CLOUDY    35  29  78 NW23      30.06R WCI  23
SPENCER        CLOUDY    31  28  89 N30G40    29.95R WCI  16
STORM LAKE *   CLOUDY    32  32 100 NW23G32   29.96R WCI  19
$$

IAZ055>058-069>071-079>083-090>094-170400-
   SOUTHWEST IOWA

CITY           SKY/WX    TMP DP  RH WIND       PRES   REMARKS
ATLANTIC *     CLOUDY    37  32  81 NW23G33   29.98R WCI  26
AUDUBON *      CLOUDY    37  30  75 W17G25    29.97R WCI  28
CLARINDA *     CLOUDY    41  34  75 NW21G26   30.02R
COUNCIL BLFS * CLOUDY    37  34  87 NW24G35   30.00R WCI  26
CRESTON *      CLOUDY    41  36  81 W21       29.95R
HARLAN  *      CLOUDY    36  32  87 NW26G33   30.02R WCI  23
LAMONI         CLOUDY    46  34  62 W17G25    29.94R
RED OAK *      CLOUDY    39  32  75 NW13G21   30.02R WCI  32
SHENANDOAH *   CLOUDY    41  32  70 NW16      30.05R
$$

IAZ047>049-059>061-072>074-084-170400-
   CENTRAL IOWA

CITY           SKY/WX    TMP DP  RH WIND       PRES   REMARKS
AMES           LGT RAIN  45  40  82 SW15      29.86R
ANKENY *       CLOUDY    48  37  66 W20       29.87S
CHARITON *     MOCLDY    52  37  58 W13G20    29.90F
DES MOINES     CLOUDY    48  37  65 W18       29.89R
GRINNELL*      MOCLDY    52  32  47 SE18      29.86F
KNOXVILLE *    CLOUDY    55  36  47 SW12G18   29.87F
MARSHALLTOWN   CLOUDY    53  34  48 S17       29.81R
NEWTON *       CLOUDY    54  34  47 S17       29.85F
PELLA *        MOCLDY    54  33  45 S13G20    29.88F
PERRY *        CLOUDY    45  38  76 W20       29.88R
$$

IAZ004>006-015-016-023>025-035-036-170400-
   NORTH CENTRAL IOWA

CITY           SKY/WX    TMP DP  RH WIND       PRES   REMARKS
ALGONA *       LGT RAIN  37  37 100 NW20G26   29.87R WCI  27
CLARION *      CLOUDY    41  41 100 NW15      29.81R
ESTHERVILLE    LGT SNOW  31  30  96 NW28G35   29.91R FOG     WCI  17
FORT DODGE *   CLOUDY    43  37  81 NW12G18   29.87R
MASON CITY     LGT RAIN  48  41  76 S8        29.78R
FOREST CITY *  DRIZZLE   41  41 100 N14       29.78F
IOWA FALLS *   LGT RAIN  50  39  67 SW10      29.80F
$$

IAZ007>011-017>019-026>030-037>042-050>054-066-170400-
   NORTHEAST IOWA

CITY           SKY/WX    TMP DP  RH WIND       PRES   REMARKS
CEDAR RAPIDS   MOCLDY    50  28  42 SE22G33   29.90R
CHARLES CITY * CLOUDY    50  32  50 SE24G33   29.79F
CLINTON *      CLOUDY    48  27  43 SE22G28   30.05S
DECORAH *      CLOUDY    48  30  49 SE23G29   29.85F
DUBUQUE        CLOUDY    47  29  49 S22G31    29.96S
MONTICELLO *   MOCLDY    48  30  49 SE18G26   29.95F
OELWEIN *      CLOUDY   N/A N/A N/A SE26G35   29.86F
WATERLOO       MOCLDY    51  30  44 SE28G37   29.82S
$$

IAZ064-065-067-068-078-170400-
   EAST CENTRAL IOWA

CITY           SKY/WX    TMP DP  RH WIND       PRES   REMARKS
DAVENPORT      CLOUDY    49  27  42 S26       30.01S
IOWA CITY      CLEAR     48  30  49 SE13G20   29.96R
MT. PLEASANT * PTCLDY    51  27  39 SE22      29.97F
MUSCATINE *    PTCLDY    52  28  40 SE21      29.98F
QUAD CITIES    CLOUDY    49  27  42 SE16G28   30.02S
$$

IAZ062-063-075>077-085>089-095>099-170400-
   SOUTHEAST IOWA

CITY           SKY/WX    TMP DP  RH WIND       PRES   REMARKS
BURLINGTON     MOCLDY    51  26  37 SE17G24   30.00R
FAIRFIELD *    PTCLDY    52  28  40 SE18      29.93F
FORT MADISON * PTCLDY    50  28  43 SE13G22   30.00F
KEOKUK *       MOCLDY    52  28  40 SE13      29.99F
OSKALOOSA *      N/A     51  33  50 S17       29.90F
CENTERVILLE *    N/A     52  32  46 S12       29.93F
OTTUMWA        PTCLDY    53  29  39 S18G28    29.90R
WASHINGTON *   CLEAR     50  30  46 SE18      29.94F
$$

ABBREVIATIONS USED IN REMARKS
   TC - TEMPERATURES IN CELSIUS
  WCI - WIND CHILL INDEX
   HX - HEAT INDEX
  VSB - VISIBILITY
$$




USA.gov is the U.S. government's official web portal to all federal, state and local government web resources and services.